Location: Unspecified
(0.0000°N, 0.0000°E)
Time: 00:27:05
(UTC+00:00)

deb Explorer IX - Pass Details

Date: 20 December 2018
Orbit: 538 x 1115 km, 38.8° (Epoch: 17 January)

Event Time Altitude Azimuth Distance (km) Brightness Sun altitude
Rises 12:18:28 0° 227° (SW) 3,848 ? 66.0°
Reaches altitude 10° 12:21:20 10° 226° (SW) 2,834 ? 65.9°
Maximum altitude 12:28:14 81° 138° (SE) 949 ? 65.4°
Drops below altitude 10° 12:34:07 10° 52° (NE) 2,438 ? 64.9°
Sets 12:36:26 0° 51° (NE) 3,281 ? 64.7°
